STARLINK-2302

Last updated on Sat Apr 24 2021 00:02:02 GMT+0000 (Coordinated Universal Time)

1 48024U 21024AZ 21113.25001157 .00077990 00000-0 55575-3 0 9998 2 48024 53.0486 55.6552 0001084 81.6533 92.1196 15.73162362 1828

Satellite not in orbit